Regional Weather Roundup
Issued by NWS

Home | Current Version | Previous Version | Text Only | Print | Product List | Glossary Off
Versions: 1 2 3 4 5 6 7 8 9 10 11 12 13 14 15 16 17 18 19 20 21 22 23 24 25 26 27 28 29 30 31 32 33 34 35 36 37 38 39 40 41 42 43 44 45 46 47 48 49 50

000
ASUS43 KLOT 231910
RWRIL

ILLINOIS REGIONAL WEATHER ROUNDUP
NATIONAL WEATHER SERVICE CHICAGO/ROMEOVILLE IL
200 PM CDT SAT AUG 23 2014

NOTE: "FAIR" INDICATES FEW OR NO CLOUDS BELOW 12,000 FEET WITH NO
SIGNIFICANT WEATHER AND/OR OBSTRUCTIONS TO VISIBILITY.

* THESE STATIONS ARE NOT UNDER NWS QUALITY CONTROL. THEY ALSO MAY NOT
  REPORT WEATHER SUCH AS PRECIPITATION OR FOG.

ILZ001-002-007-009-015-016-024-232000-
NORTHWEST ILLINOIS

CITY           SKY/WX    TMP DP  RH WIND       PRES   REMARKS
MOLINE         CLOUDY    73  70  90 E6        29.94F
STERLING*      CLOUDY    70  68  94 S6        29.94F
SAVANNA*       CLOUDY    72  70  91 E7        29.93S
$$

ILZ003-004-008-010-011-017-018-232000-
NORTH CENTRAL ILLINOIS

CITY           SKY/WX    TMP DP  RH WIND       PRES   REMARKS
ROCKFORD       TSTM      72  70  93 E10       29.95F
FREEPORT*      LGT RAIN  70  69  96 SE8       29.96F
DE KALB*       CLOUDY    71  67  88 CALM      29.99F
PERU*          CLOUDY    71  69  95 SE6       29.97F
$$

ILZ005-006-012>014-019>023-232000-
NORTHEAST ILLINOIS

CITY           SKY/WX    TMP DP  RH WIND       PRES   REMARKS
CHICAGO-OHARE  TSTM      77  68  73 NW29G36   30.05R
CHICAGO-MIDWAY TSTM      80  75  84 NE8       30.01R HX  85
AURORA         CLOUDY    76  71  85 N9        29.98F
LANSING*       CLOUDY    80  73  81 CALM      30.00S HX  84
JOLIET*        TSTM      73  69  87 NE17      30.02S
WAUKEGAN       CLOUDY    74  71  91 CALM      30.04R FOG
DUPAGE AIRPORT TSTM      74  70  87 NE8       30.01F
KANKAKEE*      CLOUDY    71  69  95 W6G18     30.04R
WHEELING       TSTM      76  70  82 NW26G39   30.11R
MORRIS*        TSTM      72  71  96 CALM      30.00F
ROMEOVILLE*    HVY RAIN  70  69  96 NE3G21    30.03R VSB 1
NORTHERLY ISL    N/A     74  72  93 MISG        N/A
$$

LMZ740>746-232000-
SOUTHERN LAKE MICHIGAN

STATION/POSITION SKY/WX   TEMP    WIND        PRES    VSBY  WAVE
                          AIR SEA DIR/SP/G                  HT/PER
                          (F)     (DEG/KT/KT) (MB)    (MI)  (FT/S)
SOUTHERN BUOY              70 70  110/  2/  2 1017.0R         1
WAUKEGAN HARBOR            72      70/  5/  5   N/A
HARRISON CRIB              72      60/  9/ 10   N/A
BURNHAM HARBOR             74      20/  4/  7   N/A
CALUMET HARBOR             74      30/  5/  7 1014.9S
MICHIGAN CITY              76      20/ 12/ 12   N/A
MICHIGAN CITY 6N           75 73   40/  8/ 10   N/A           1/ 2
ST. JOSEPH                 78 74  110/  6/  8   N/A           1
$$

ILZ025>027-034>036-040-047-049-050-058-095>099-232000-
WEST-CENTRAL ILLINOIS

CITY           SKY/WX    TMP DP  RH WIND       PRES   REMARKS
QUINCY         MOSUNNY   89  73  59 S7        29.93F HX  97
GALESBURG*     CLOUDY    75  72  88 E8        29.96F
MACOMB*        PTSUNNY   82  73  75 E7        29.97S HX  87
JACKSONVILLE*  PTSUNNY   91  76  61 NE3       29.95S HX 103
PITTSFIELD*    MOSUNNY   91  72  54 CALM      29.95F HX  98
$$

ILZ028>032-037-038-041>044-048-051>054-059>061-232000-
CENTRAL ILLINOIS

CITY           SKY/WX    TMP DP  RH WIND       PRES   REMARKS
PONTIAC        CLOUDY    72  72 100 E7        30.00F
DECATUR        PTSUNNY   89  80  74 E8        29.96F HX 106
PEORIA         CLOUDY    76  71  85 NE10      29.96F
LACON*         CLOUDY    71  69  93 E10       29.96F
LINCOLN*       PTSUNNY   85  75  72 NE6       29.92F HX  93
SPRINGFIELD    PTSUNNY   91  78  65 MISG      29.94F HX 106
TAYLORVILLE    PTSUNNY   90  79  70 NE5       29.95S HX 105
$$

ILZ033-039-045-046-055>057-062-063-232000-
EAST-CENTRAL ILLINOIS

CITY           SKY/WX    TMP DP  RH WIND       PRES   REMARKS
CHAMPAIGN      CLOUDY    88  78  72 S6        29.98S HX 101
DANVILLE*      HVY RAIN  84  76  78 E3        29.95F HX  93
RANTOUL*       CLOUDY    78  68  72 N21G30    30.02R THUNDER HX  80
MATTOON        PTSUNNY   88  79  74 E3        29.96F HX 103
PARIS*         MOSUNNY   88  80  76 E3        29.98S HX 104
$$

ILZ079-100>102-232000-
SOUTHWEST ILLINOIS

CITY           SKY/WX    TMP DP  RH WIND       PRES   REMARKS
ALTON          MOSUNNY   91  79  66 N6        29.95F HX 107
BELLEVILLE     MOSUNNY   94  75  54 CALM      29.93F HX 106
CAHOKIA*       MOSUNNY   97  72  44 N5        29.93F HX 105
SPARTA*        MOSUNNY   92  76  59 CALM      29.96S HX 105
$$

ILZ064>066-069>071-074>076-080>082-084>086-088>090-092>094-232000-
SOUTH-CENTRAL ILLINOIS

CITY           SKY/WX    TMP DP  RH WIND       PRES   REMARKS
CARBONDALE     SUNNY     92  75  57 CALM      29.95F HX 103
CAIRO*         PTSUNNY   95  79  59 CALM      29.95F HX 112
MARION         PTSUNNY   93  75  55 W6        29.96F HX 104
MT. VERNON     SUNNY     91  77  62 NW3       29.95F HX 105
CENTRALIA*     SUNNY     97  76  50 NW8       29.96S HX 110
SALEM*         MOSUNNY   93  81  68 N6        29.96S HX 113
METROPOLIS*    PTSUNNY   88  74  63 CALM      29.96F HX  96
$$

ILZ067-068-072-073-078-083-087-091-232000-
SOUTHEAST ILLINOIS

CITY           SKY/WX    TMP DP  RH WIND       PRES   REMARKS
LAWRENCEVILLE  LGT RAIN  88  81  79 E6        29.95F HX 106
FLORA*         MOSUNNY   91  77  63 CALM      29.95F HX 103
FAIRFIELD*     MOSUNNY   93  82  70 CALM      29.94F HX 117
HARRISBURG*    MOSUNNY   91  78  63 W3        29.96F HX 105
ROBINSON*      PTSUNNY   91  80  70 E3        29.96F HX 109
CARMI*         SUNNY     93  79  62 CALM      29.94F HX 110
$$

ABBREVIATIONS USED IN REMARKS
   TC - TEMPERATURE IN CELSIUS
  WCI - WIND CHILL INDEX
   HX - HEAT INDEX
  VSB - VISIBILITY
$$



USA.gov is the U.S. government's official web portal to all federal, state and local government web resources and services.